Regional Weather Roundup
Issued by NWS

Home | Current Version | Previous Version | Text Only | Print | Product List | Glossary Off
Versions: 1 2 3 4 5 6 7 8 9 10 11 12 13 14 15 16 17 18 19 20 21 22 23 24 25 26 27 28 29 30 31 32 33 34 35 36 37 38 39 40 41 42 43 44 45 46 47 48 49 50

841
ASUS43 KLOT 271408
RWRIL

ILLINOIS REGIONAL WEATHER ROUNDUP
NATIONAL WEATHER SERVICE CHICAGO/ROMEOVILLE IL
800 AM CST MON FEB 27 2017

NOTE: "FAIR" INDICATES FEW OR NO CLOUDS BELOW 12,000 FEET WITH NO
SIGNIFICANT WEATHER AND/OR OBSTRUCTIONS TO VISIBILITY.

* THESE STATIONS ARE NOT UNDER NWS QUALITY CONTROL. THEY ALSO MAY NOT
  REPORT WEATHER SUCH AS PRECIPITATION OR FOG.

ILZ001-002-007-009-015-016-024-271500-
NORTHWEST ILLINOIS

CITY           SKY/WX    TMP DP  RH WIND       PRES   REMARKS
MOLINE         SUNNY     33  30  88 S3        30.10R
STERLING*      MOSUNNY   31  29  92 CALM      30.13R
$$

ILZ003-004-008-010-011-017-018-271500-
NORTH CENTRAL ILLINOIS

CITY           SKY/WX    TMP DP  RH WIND       PRES   REMARKS
ROCKFORD       CLOUDY    31  28  89 SE3       30.14R
FREEPORT*      PTSUNNY   28  27  95 CALM      30.13R
ROCHELLE*      CLOUDY    32  31  95 CALM      30.14R
DE KALB*       PTSUNNY   32  29  89 SE5       30.14R WCI  27
PERU*          SUNNY     32  29  88 S9        30.15R WCI  24
$$

ILZ005-006-012>014-019>023-271500-
NORTHEAST ILLINOIS

CITY           SKY/WX    TMP DP  RH WIND       PRES   REMARKS
CHICAGO-OHARE  MOSUNNY   35  28  75 CALM      30.15R
CHICAGO-MIDWAY MOSUNNY   36  28  73 S5        30.16R WCI  32
AURORA         SUNNY     34  29  82 S5        30.15R WCI  30
LANSING*       SUNNY     33  30  90 S3        30.18R
JOLIET*        SUNNY     36  32  87 S6        30.16S WCI  31
WAUKEGAN       SUNNY     33  31  92 CALM      30.14R
DUPAGE AIRPORT SUNNY     32  28  85 CALM      30.14R
KANKAKEE*      SUNNY     34  29  84 S9        30.18R WCI  26
WHEELING       SUNNY     32  27  81 SE3       30.16R
MORRIS*        SUNNY     32  30  90 CALM      30.16R
ROMEOVILLE*    SUNNY     33  32  95 CALM      30.15S
NORTHERLY ISL    N/A     37  28  70 S2          N/A
$$

LMZ740>746-271500-
SOUTHERN LAKE MICHIGAN

STATION/POSITION SKY/WX   TEMP    WIND        PRES    VSBY  WAVE
                          AIR SEA DIR/SP/G                  HT/PER
                          (F)     (DEG/KT/KT) (MB)    (MI)  (FT/S)
HARRISON CRIB              37     190/  7/  8   N/A
BURNHAM HARBOR             38     230/  3/  7   N/A
CALUMET HARBOR             36     180/  3/  4 1020.9R
BURNS HARBOR               34     190/  7/ 10 1022.0R
MICHIGAN CITY              35     160/  6/  7   N/A
$$

ILZ025>027-034>036-040-047-049-050-058-095>099-271500-
WEST-CENTRAL ILLINOIS

CITY           SKY/WX    TMP DP  RH WIND       PRES   REMARKS
QUINCY         SUNNY     36  33  89 SE7       30.09R WCI  30
GALESBURG*     SUNNY     32  32  99 SE3         N/A
MACOMB*        SUNNY     31  31 100 SE3       30.13S
JACKSONVILLE*  SUNNY     39  34  84 E7        30.13R WCI  34
PITTSFIELD*    SUNNY     36  35  96 E3        30.12S
$$

ILZ028>032-037-038-041>044-048-051>054-059>061-271500-
CENTRAL ILLINOIS

CITY           SKY/WX    TMP DP  RH WIND       PRES   REMARKS
PONTIAC        MOSUNNY   33  33  96 SE6       30.16S WCI  28
BLOOMINGTON    SUNNY     36  32  85 S10       30.15R WCI  28
DECATUR        MOSUNNY   40  36  86 SE8       30.15F
PEORIA         SUNNY     35  32  88 SE3       30.14R
LACON*         SUNNY     33  31  92 SE3       30.14R
LINCOLN*       MOSUNNY   38  35  89 SE6       30.15S WCI  33
SPRINGFIELD    SUNNY     41  35  79 SE9       30.15R
TAYLORVILLE    MOSUNNY   41  34  76 SE7       30.14S
$$

ILZ033-039-045-046-055>057-062-063-271500-
EAST-CENTRAL ILLINOIS

CITY           SKY/WX    TMP DP  RH WIND       PRES   REMARKS
CHAMPAIGN      MOSUNNY   41  34  76 SE9       30.17S
RANTOUL*       MOSUNNY   39  36  86 SE7       30.17S WCI  34
MATTOON        PTSUNNY   42  35  76 SE8       30.16S
PARIS*         CLOUDY    41  35  79 E7        30.19F
$$

ILZ079-100>102-271500-
SOUTHWEST ILLINOIS

CITY           SKY/WX    TMP DP  RH WIND       PRES   REMARKS
ALTON          MOSUNNY   39  34  81 SE6       30.13R WCI  35
BELLEVILLE     MOSUNNY   43  37  80 E5        30.12S
CAHOKIA*       SUNNY     43  34  70 SE7       30.12S
SPARTA*        SUNNY     41  36  81 SE7       30.14S
$$

ILZ064>066-069>071-074>076-080>082-084>086-088>090-092>094-271500-
SOUTH-CENTRAL ILLINOIS

CITY           SKY/WX    TMP DP  RH WIND       PRES   REMARKS
CARBONDALE     SUNNY     45  40  82 E5        30.15R
CAIRO*         SUNNY     47  43  88 E5        30.15R
EFFINGHAM*     CLOUDY    43  37  80 E5        30.18S
MARION         MOSUNNY   46  43  87 SE12      30.15S
MT. VERNON     CLOUDY    44  36  73 E6        30.16
CENTRALIA*     CLOUDY    45  38  77 SE6       30.14S
SALEM*         CLOUDY    45  35  67 SE6       30.15S
METROPOLIS*    CLOUDY    47  44  87 CALM      30.15S
$$

ILZ067-068-072-073-078-083-087-091-271500-
SOUTHEAST ILLINOIS

CITY           SKY/WX    TMP DP  RH WIND       PRES   REMARKS
LAWRENCEVILLE  CLOUDY    44  38  79 E5        30.20R
FLORA*         CLOUDY    45  37  74 SE6       30.18R
FAIRFIELD*     CLOUDY    44  38  79 CALM      30.17R
HARRISBURG*    PTSUNNY   45  42  88 SE8       30.17R
ROBINSON*      CLOUDY    43  35  74 E3        30.20S
CARMI*         CLOUDY    45  42  89 SE8       30.17R
$$

ABBREVIATIONS USED IN REMARKS
   TC - TEMPERATURE IN CELSIUS
  WCI - WIND CHILL INDEX
   HX - HEAT INDEX
  VSB - VISIBILITY
$$





USA.gov is the U.S. government's official web portal to all federal, state and local government web resources and services.